Location: Bli��� Lhota
(48.7570°N, 14.0120°E)
Time: 04:36:06
(UTC+00:00)

Cosmos 2151 Rocket - Pass Details

Date: 18 September 2020
Orbit: 617 x 642 km, 82.5° (Epoch: 29 October)

Event Time Altitude Azimuth Distance (km) Brightness Sun altitude
Rises 18:44:20 0° 180° (S) 2,901 6.8 -16.0°
Reaches altitude 10° 18:46:33 10° 178° (S) 2,002 5.9 -16.4°
Maximum altitude 18:50:57 67° 97° (E) 689 3.5 -17.0°
Drops below altitude 10° 18:55:26 10° 15° (NNE) 2,034 6.3 -17.7°
Sets 18:57:43 0° 12° (NNE) 2,952 7.2 -18.1°
